[[{"header":{"parameterUnit":"m.s-1","parameterCategory":1,"la1":30.2991,"la2":30.254,"lo1":-89.0895,"lo2":-89.0444,"dy":0.0017,"dx":0.0017,"nx":28,"ny":28,"refTime":"2023-09-30T03:00:00:Z","depth":0,"parameterNumber":2,"parameterNumberName":"U-component_of_WINDS"},"data":[0,0,0,0,0,0,0,0,0,0,0,0,0,0,0,0,0,0,0,0,0,0,0,0,0,0,0,0,0,0,0,0,0,0,0,0,0,0,0,0,0,0,0,0,0,0,0,0,0,0,0,0,0,0,0,0,0,0,-4.7385,-4.7385,0,-4.7378,-4.7377,-4.7377,-4.7203,-4.7199,-4.7194,-4.719,-4.7183,-4.7186,-4.719,0,0,0,0,0,0,0,0,0,0,0,0,0,-4.7247,-4.7251,-4.7385,-4.7385,-4.7385,-4.7378,-4.7377,-4.7377,-4.7204,-4.7198,-4.7193,-4.7188,-4.7181,-4.7186,-4.7191,0,0,0,0,0,0,0,0,0,0,0,0,0,-4.728,-4.7252,-4.7385,-4.7297,-4.7289,-4.7378,-4.7377,-4.7377,-4.7205,-4.7198,-4.7191,-4.7185,-4.718,-4.7186,-4.7191,-4.7363,0,0,-4.721,-4.7212,0,0,0,0,0,0,0,0,-4.7279,-4.7286,-4.731,-4.7303,-4.7295,-4.7284,-4.7326,-4.7373,-4.7207,-4.7237,-4.719,-4.7182,-4.7222,-4.7224,-4.7237,-4.7363,-4.7362,-4.721,-4.7214,-4.7216,-4.7218,0,0,0,0,0,0,0,-4.7277,-4.7285,-4.7382,-4.7311,-4.7301,-4.7258,-4.7255,-4.7334,-4.7267,-4.7234,-4.7221,-4.7223,-4.7216,-4.7232,-4.7236,-4.7362,-4.721,-4.7215,-4.7219,-4.7221,-4.7628,-4.7635,0,0,0,0,0,0,-4.7287,-4.7284,-4.7382,-4.7381,-4.727,-4.7266,-4.7263,-4.7294,-4.7266,-4.7255,-4.7228,-4.7215,-4.7225,-4.7229,-4.7235,-4.7434,-4.7216,-4.7222,-4.7225,-4.7621,-4.7629,-4.7637,0,0,0,0,0,0,-4.7284,-4.7297,-4.7382,-4.7329,-4.7337,-4.7275,-4.7312,-4.7298,-4.7313,-4.7262,-4.7249,-4.7257,-4.722,-4.7227,-4.7332,-4.7431,-4.7225,-4.723,-4.7612,-4.7623,-4.7633,-4.7834,0,0,0,0,0,0,-4.7281,-4.7297,-4.7362,-4.7332,-4.7341,-4.7481,-4.7318,-4.7303,-4.7324,-4.7306,-4.7285,-4.7275,-4.7215,-4.7325,-4.7339,-4.7436,-4.7235,-4.7603,-4.7617,-4.763,-4.7819,-4.7851,-4.7878,0,0,0,0,0,-4.7277,-4.7419,-4.7366,-4.7379,-4.742,-4.7487,-4.7491,-4.7419,-4.7333,-4.7397,-4.7364,-4.7276,-4.7418,-4.7337,-4.7351,-4.7452,-4.7596,-4.7613,-4.7629,-4.7805,-4.7844,-4.7877,0,0,0,0,0,0,-4.7462,-4.7413,-4.7354,-4.7491,-4.7495,-4.7457,-4.7536,-4.7463,-4.7491,-4.7473,-4.7382,-4.7379,-4.7499,-4.7486,-4.7396,-4.7616,-4.7492,-4.7512,-4.7621,-4.7658,-4.7687,-4.7688,-4.724,0,0,0,0,0,-4.7519,-4.7577,-4.7531,-4.7656,-4.7661,-4.7599,-4.7625,-4.757,-4.7569,-4.757,-4.7544,-4.7547,-4.7592,-4.7624,-4.7663,-4.7815,-4.7808,-4.7892,-4.7922,-4.7946,-4.7965,-4.8045,-4.8081,-4.769,-4.769,-4.769,0,0,-4.7637,-4.7617,-4.766,-4.7693,-4.7689,-4.7751,-4.7601,-4.7673,-4.7719,-4.758,-4.7679,-4.7661,-4.7658,-4.7788,-4.7844,-4.7781,-4.8071,-4.7967,-4.7987,-4.7992,-4.8065,-4.8102,-4.8135,-4.7701,-4.7699,-4.7698,0,0,-4.7883,-4.7875,-4.7978,-4.7977,-4.7973,-4.793,-4.7956,-4.7929,-4.7912,-4.8009,-4.7907,-4.7959,-4.8039,-4.8041,-4.8053,-4.8301,-4.8221,-4.8316,-4.8472,-4.8551,-4.8581,-4.8608,-4.8697,-4.873,-4.8334,-4.8335,-4.8335,0,-4.8031,-4.812,-4.804,-4.8119,-4.8137,-4.8015,-4.8118,-4.8121,-4.813,-4.8145,-4.8074,-4.8171,-4.8161,-4.829,-4.8351,-4.8364,-4.839,-4.8318,-4.8583,-4.861,-4.8633,-4.8717,-4.8751,-4.8346,-4.8345,-4.8344,-4.8343,0,-4.8302,-4.8366,-4.8449,-4.8461,-4.8488,-4.858,-4.8513,-4.855,-4.8492,-4.8457,-4.8558,-4.8541,-4.8574,-4.8601,-4.8545,-4.8722,-4.8683,-4.8599,-4.8472,-4.8684,-4.8761,-4.8792,-4.8363,-4.8359,-4.8355,-4.8352,0,0,-4.8666,-4.8632,-4.8664,-4.8668,-4.8654,-4.8702,-4.8787,-4.8819,-4.8853,-4.8863,-4.8933,-4.9003,-4.8925,-4.8939,-4.8882,-4.8951,-4.9149,-4.8858,-4.8857,-4.8913,-4.9344,-4.9408,-4.9447,-4.9095,-4.9101,-4.9106,-4.9345,0,-4.8905,-4.9049,-4.8979,-4.9132,-4.919,-4.9074,-4.9148,-4.9148,-4.9118,-4.9163,-4.9129,-4.9181,-4.9073,-4.9081,-4.9144,-4.9112,-4.9234,-4.9093,-4.916,-4.9163,-4.9165,-4.9487,-4.9555,-4.9781,-4.9374,-4.9379,-4.9383,0,-4.9203,-4.9226,-4.9385,-4.936,-4.9381,-4.945,-4.9474,-4.9518,-4.9515,-4.9488,-4.9504,-4.943,-4.9512,-4.9386,-4.9498,-4.9404,-4.9427,-4.9415,-4.9422,-4.9426,-4.9287,-4.95,-4.9851,-4.9886,-4.9429,-4.9426,-4.9422,0,-4.9453,-4.9524,-4.9627,-4.9634,-4.9608,-4.9659,-4.965,-4.964,-4.9664,-4.9685,-4.97,-4.9731,-4.9748,-4.9773,-4.971,-4.9624,-4.9831,-4.9699,-4.9811,-4.9813,-4.9861,-4.9859,-5.0221,-4.9875,-4.9875,-4.9874,-4.9873,0,-4.9728,-4.983,-4.9739,-4.9804,-4.9914,-4.9833,-4.9944,-4.9923,-4.9915,-4.9973,-4.9875,-4.9931,-4.9844,-4.9892,-4.9843,-4.9944,-4.9952,-4.9933,-4.9919,-4.9942,-4.9945,-4.9957,-4.994,-4.9883,-4.9881,-4.9879,-4.9878,0,-5.0027,-4.997,-5.0076,-5.0042,-5.0036,-5.012,-5.009,-5.0148,-5.0111,-5.0186,-5.0198,-5.0141,-5.0192,-5.0131,-5.0177,-5.0144,-5.0281,-5.0243,-5.0283,-5.0272,-5.0388,-5.0378,-5.0771,-5.0818,-5.0441,-5.0445,-5.0448,0,-5.0206,-5.0282,-5.0256,-5.0288,-5.0285,-5.0337,-5.0361,-5.0284,-5.0313,-5.0315,-5.0373,-5.0416,-5.0446,-5.0534,-5.0496,-5.0531,-5.0493,-5.0628,-5.0498,-5.0519,-5.0496,-5.0493,-5.05,-5.0656,-5.066,-5.0664,-5.0667,0,-5.053,-5.0499,-5.0537,-5.0566,-5.0598,-5.0617,-5.0628,-5.066,-5.0579,-5.0617,-5.0668,-5.0692,-5.0738,-5.0783,-5.0807,-5.0797,-5.072,-5.0708,-5.0736,-5.0761,-5.0781,-5.0772,-5.0356,-5.07,-5.0696,-5.0694,-5.0692,-5.0691,-5.0775,-5.0837,-5.0829,-5.0875,-5.0875,-5.0888,-5.0941,-5.0911,-5.0952,-5.0984,-5.0936,-5.1,-5.0995,-5.1019,-5.1019,-5.1068,-5.101,-5.1051,-5.1061,-5.1072,-5.109,-5.0773,-5.1072,-5.1071,-5.107,-5.1069,-5.1069,0,-5.1095,-5.1084,-5.1127,-5.1146,-5.1183,-5.1105,-5.1114,-5.115,-5.1208,-5.1209,-5.1241,-5.13,-5.1342,-5.1308,-5.1343,-5.1389,-5.1354,-5.1401,-5.1397,-5.1396,-5.114,-5.1112,-5.1429,-5.1429,-5.1428,-5.1428,-5.1428,-5.1428,-5.1266,-5.1366,-5.1334,-5.1434,-5.1421,-5.1484,-5.1495,-5.1507,-5.1508,-5.1578,-5.1613,-5.159,-5.1577,-5.161,-5.1646,-5.1634,-5.1652,-5.1712,-5.1689,-5.145,-5.1414,-5.1381,-5.1355,-5.1717,-5.1717,-5.1941,-5.1943,-5.1945]},{"header":{"parameterUnit":"m.s-1","parameterCategory":1,"la1":30.2991,"la2":30.254,"lo1":-89.0895,"lo2":-89.0444,"dy":0.0017,"dx":0.0017,"nx":28,"ny":28,"refTime":"2023-09-30T03:00:00:Z","depth":0,"parameterNumber":3,"parameterNumberName":"V-component_of_WINDS"},"data":[0,0,0,0,0,0,0,0,0,0,0,0,0,0,0,0,0,0,0,0,0,0,0,0,0,0,0,0,0,0,0,0,0,0,0,0,0,0,0,0,0,0,0,0,0,0,0,0,0,0,0,0,0,0,0,0,0,0,0.1278,0.1277,0,0.1139,0.1137,0.1135,0.109,0.1091,0.1091,0.1092,0.0943,0.0939,0.0934,0,0,0,0,0,0,0,0,0,0,0,0,0,0.1503,0.1499,0.1279,0.1277,0.1275,0.1139,0.1137,0.1135,0.109,0.1091,0.1092,0.1092,0.0945,0.0939,0.0934,0,0,0,0,0,0,0,0,0,0,0,0,0,0.1389,0.1498,0.1279,0.1236,0.1231,0.1139,0.1137,0.1134,0.109,0.1091,0.1092,0.1093,0.0946,0.094,0.0933,0.0871,0,0,0.0912,0.0909,0,0,0,0,0,0,0,0,0.1395,0.138,0.1244,0.1239,0.1233,0.1133,0.1161,0.1046,0.109,0.1143,0.1092,0.1093,0.1005,0.0994,0.0965,0.0864,0.0858,0.0911,0.0907,0.0904,0.0902,0,0,0,0,0,0,0,0.1403,0.1386,0.1223,0.1243,0.1236,0.1223,0.1208,0.1139,0.107,0.1139,0.1135,0.112,0.1002,0.0972,0.0961,0.0856,0.0912,0.0906,0.0901,0.0899,0.0698,0.0697,0,0,0,0,0,0,0.1419,0.1393,0.1227,0.1219,0.1318,0.1218,0.1201,0.1164,0.1071,0.1058,0.1119,0.1118,0.0983,0.0969,0.0956,0.0877,0.0904,0.0898,0.0894,0.0699,0.0697,0.0696,0,0,0,0,0,0,0.1424,0.1405,0.1233,0.1305,0.1282,0.1213,0.1172,0.1161,0.113,0.1056,0.1043,0.1101,0.0983,0.0965,0.0893,0.0871,0.0895,0.0889,0.07,0.0698,0.0697,0.0719,0,0,0,0,0,0,0.143,0.1407,0.1383,0.1305,0.1279,0.1174,0.1171,0.1157,0.1119,0.1117,0.1035,0.1023,0.0982,0.0904,0.0886,0.0862,0.0883,0.0702,0.07,0.0697,0.072,0.0718,0.0717,0,0,0,0,0,0.1439,0.1394,0.1382,0.1362,0.1248,0.1173,0.1158,0.1114,0.1118,0.1093,0.1046,0.1025,0.0877,0.0897,0.0877,0.085,0.0703,0.07,0.0698,0.0721,0.0719,0.0717,0,0,0,0,0,0,0.1469,0.1383,0.1369,0.1298,0.1243,0.1166,0.1133,0.1113,0.1055,0.1055,0.1001,0.0983,0.0915,0.0875,0.0899,0.0786,0.0789,0.0782,0.0814,0.0811,0.0809,0.0819,0.0878,0,0,0,0,0,0.1468,0.1415,0.1342,0.1286,0.126,0.1202,0.1167,0.1139,0.1079,0.1055,0.1002,0.0944,0.0884,0.0846,0.0787,0.0715,0.0696,0.0687,0.0686,0.0685,0.0679,0.0638,0.0632,0.0687,0.0687,0.0687,0,0,0.1463,0.141,0.138,0.1291,0.1246,0.1191,0.1182,0.1125,0.1083,0.1046,0.0974,0.0934,0.0866,0.0794,0.0759,0.0759,0.066,0.0681,0.0681,0.0675,0.0634,0.0629,0.0625,0.0685,0.0686,0.0686,0,0,0.1428,0.1383,0.1332,0.1287,0.1219,0.1181,0.1169,0.1095,0.1067,0.0996,0.0966,0.0916,0.0814,0.0767,0.0729,0.0679,0.0658,0.0661,0.0652,0.0613,0.0608,0.0604,0.0585,0.0579,0.0656,0.0656,0.0656,0,0.1431,0.1349,0.1307,0.1252,0.1213,0.118,0.1127,0.1085,0.1001,0.0974,0.0976,0.0848,0.08,0.0716,0.0704,0.0676,0.0659,0.0669,0.0613,0.0608,0.0603,0.0584,0.0578,0.0657,0.0657,0.0657,0.0657,0,0.1355,0.13,0.1266,0.1188,0.1146,0.1092,0.1041,0.1003,0.0979,0.0941,0.0868,0.0809,0.0738,0.0717,0.0691,0.0629,0.0631,0.0624,0.0625,0.06,0.0581,0.0573,0.0658,0.0658,0.0657,0.0657,0,0,0.1331,0.1234,0.1221,0.1186,0.111,0.1065,0.101,0.0942,0.0911,0.0855,0.0806,0.0722,0.0715,0.0673,0.0642,0.0608,0.0571,0.0604,0.0602,0.0599,0.0498,0.0502,0.0495,0.0558,0.0557,0.0555,0.0503,0,0.1285,0.1186,0.1148,0.1066,0.1014,0.0983,0.0935,0.0882,0.0846,0.0794,0.0753,0.0694,0.069,0.0664,0.063,0.0583,0.055,0.0587,0.051,0.0508,0.0526,0.0485,0.0489,0.0442,0.0495,0.0494,0.0493,0,0.1216,0.1162,0.1076,0.1008,0.0984,0.0942,0.0877,0.083,0.077,0.0745,0.07,0.0672,0.0612,0.062,0.0536,0.0562,0.0529,0.0501,0.0498,0.0487,0.0497,0.0471,0.0426,0.0419,0.0481,0.0482,0.0483,0,0.1206,0.1111,0.1047,0.1018,0.0937,0.0908,0.0873,0.0814,0.0777,0.072,0.0695,0.0632,0.0596,0.0547,0.0503,0.0513,0.0422,0.0427,0.0398,0.04,0.0378,0.0379,0.0326,0.0361,0.0361,0.0361,0.0361,0,0.1156,0.1104,0.1042,0.1002,0.0944,0.0901,0.0843,0.0805,0.0754,0.0706,0.0676,0.0631,0.0576,0.0524,0.0489,0.0424,0.0408,0.0386,0.0376,0.0387,0.039,0.0362,0.0363,0.0359,0.036,0.036,0.036,0,0.1132,0.1089,0.1017,0.0948,0.093,0.0889,0.0829,0.0789,0.0753,0.0692,0.0675,0.0617,0.0554,0.0506,0.0424,0.0401,0.0331,0.0322,0.0352,0.0346,0.032,0.0323,0.0245,0.0232,0.0278,0.0278,0.0278,0,0.1102,0.1062,0.099,0.0957,0.0922,0.0869,0.0831,0.0788,0.0749,0.0679,0.0647,0.0584,0.0529,0.0431,0.0379,0.0317,0.0305,0.0282,0.0295,0.0307,0.0302,0.0304,0.0299,0.0279,0.0279,0.0279,0.0279,0,0.1053,0.1034,0.0982,0.0922,0.0879,0.0829,0.0779,0.0753,0.07,0.0659,0.0596,0.0554,0.0472,0.0408,0.0341,0.0302,0.0281,0.0276,0.0266,0.0274,0.0292,0.0281,0.0345,0.0277,0.0277,0.0277,0.0277,0.0277,0.1024,0.0987,0.0931,0.0873,0.0832,0.0786,0.0746,0.0705,0.0653,0.0583,0.0561,0.0496,0.0438,0.0345,0.0307,0.0254,0.0253,0.0239,0.0235,0.0231,0.0231,0.0304,0.0242,0.0242,0.0242,0.0242,0.0242,0,0.0971,0.0935,0.0883,0.0815,0.077,0.0758,0.0702,0.0664,0.0608,0.0557,0.0505,0.0433,0.0371,0.0317,0.0253,0.0221,0.021,0.0205,0.0206,0.0197,0.0236,0.0251,0.0216,0.0216,0.0216,0.0216,0.0216,0.0216,0.0939,0.0875,0.085,0.0766,0.0729,0.0667,0.0636,0.0593,0.0552,0.0474,0.0423,0.039,0.0336,0.0269,0.0211,0.0197,0.0174,0.0172,0.0154,0.0191,0.0194,0.0197,0.0211,0.0167,0.0167,0.0119,0.0119,0.0118]}]]